Location: Cahas Mountain Overlook
(37.0833°N, 80.1000°W)
Time: 14:48:28
(UTC-05:00)

Vanguard 2 Rocket - Visible Passes

Search period start: 08 February 2026 00:00
Search period end: 18 February 2026 00:00
Orbit: 553 x 3286 km, 32.9° (Epoch: 8 February)

Date Brightness Start Highest point End Pass type
(mag) Time Alt. Az. Time Alt. Az. Time Alt. Az.
8 Feb 7.2 19:20:07 10° W 19:26:52 49° SSW 19:29:12 27° SE visible
9 Feb 7.5 18:13:21 10° W 18:22:08 61° S 18:27:17 10° ESE visible
9 Feb 8.1 20:29:23 10° W 20:33:30 25° SW 20:33:30 25° SW visible
10 Feb 7.6 19:22:49 10° W 19:29:40 42° SSW 19:32:29 22° SE visible
11 Feb 7.8 18:15:52 10° W 18:24:58 57° SSW 18:30:17 10° ESE visible
11 Feb 8.5 20:32:37 10° WSW 20:36:39 19° SW 20:36:50 19° SSW visible
12 Feb 8.2 19:25:34 10° W 19:32:21 34° SSW 19:35:51 16° SSE visible
13 Feb 8.1 18:18:23 10° W 18:27:42 51° SSW 18:33:10 10° SE visible
13 Feb 8.9 20:36:23 10° WSW 20:39:05 13° SW 20:40:16 12° SSW visible
14 Feb 8.7 19:28:26 10° W 19:34:51 26° SW 19:39:14 10° SSE visible
15 Feb 8.5 18:20:54 10° W 18:30:19 43° SSW 18:35:55 10° SE visible
16 Feb 9.0 19:31:32 10° W 19:37:12 20° SW 19:41:17 10° S visible
17 Feb 9.0 18:23:30 10° W 18:32:45 35° SSW 18:38:28 10° SSE visible
